Granada, Spain

12:05 PM CET en Noviembre 14, 2018 (GMT +0100)
Granada

Tiempo Historia de LEGR - Junio, 2018

Change the Weather History Date:

Jueves, Junio 14, 2018

  Actual Average Record
Temperature  
Temperatura media 72 ° F -  
Temperatura máxima 88 ° F 89 ° F 105 ° F (2017)
Temperatura mínima 57 ° F 57 ° F 50 ° F (2015)
Cooling Degree Days 8    
Growing Degree Days 22 (Base 50)    
Moisture  
Punto de rocío 47 ° F    
Average Humidity 37    
Maximum Humidity 77    
Minimum Humidity 14    
Precipitación  
Precipitación 0.00 pul - - ()
Presión al nivel del mar  
Presión al nivel del mar 29.98 pul    
Viento  
Velocidad del viento 3 mph ()    
Velocidad máxima del viento 12 mph    
Max Gust Speed 18 mph    
Visibilidad 7.8 Millas    
Eventos      
Averages and records for this station are not official NWS values.
T = Trace of Precipitation, MM = Missing Value Source: Averaged Metar Reports

Daily Weather History Graph

Daily Weather History Graph

Search for Another Location

Airport or City:

Astronomía

Jun. 14, 2018 Salida Puesta
Hora real 6:54 AM CEST 9:36 PM CEST
Crepúsculo civil 6:23 AM CEST 10:07 PM CEST
Crepúsculo náutico 5:44 AM CEST 10:45 PM CEST
Crepúsculo astronómico 5:01 AM CEST 11:29 PM CEST
Luna 7:36 AM CEST 10:23 PM CEST
Horas de luz 15h 43m
Horas de luz
14h 42m
Luna nueva, 1% of the Moon is Illuminated
Jun 14
Luna nueva
Jun 20
Cuarto creciente
Jun 28
Luna llena
Jul 6
Cuarto menguante
Jul 13
Nueva

Hourly Weather History & Observations

Hora (CEST) Temp. Punto de rocío Humedad Presión Visibilidad Wind Dir Velocidad del viento Velocidad de ráfagas Precip Eventos Condiciones
6:00 AM 59.0 ° F 51.8 ° F 77% 30.04 pul - Sin viento Sin viento - N/A   Despejado
6:30 AM 57.2 ° F 50.0 ° F 77% 30.04 pul 6.2 mi Sin viento Sin viento - N/A   Parcialmente nublado
7:00 AM 57.2 ° F 50.0 ° F 77% 30.04 pul 6.2 mi SO 2.3 mph - N/A   Parcialmente nublado
7:30 AM 57.2 ° F 50.0 ° F 77% 30.04 pul 6.2 mi Sin viento Sin viento - N/A   Parcialmente nublado
8:00 AM 59.0 ° F 51.8 ° F 77% 30.04 pul 6.2 mi Sin viento Sin viento - N/A   Parcialmente nublado
8:30 AM 62.6 ° F 53.6 ° F 72% 30.04 pul 6.2 mi Sin viento Sin viento - N/A   Parcialmente nublado
9:00 AM 64.4 ° F 53.6 ° F 68% 30.04 pul - Sin viento Sin viento - N/A   Despejado
9:30 AM 66.2 ° F 53.6 ° F 64% - - Variable 2.3 mph - N/A   Despejado
10:00 AM 69.8 ° F 53.6 ° F 56% 30.04 pul - Sin viento Sin viento - N/A   Despejado
10:30 AM 71.6 ° F 53.6 ° F 53% 30.04 pul 6.2 mi Variable 1.2 mph - N/A   Parcialmente nublado
11:00 AM 73.4 ° F 51.8 ° F 47% 30.01 pul 6.2 mi Variable 1.2 mph - N/A   Parcialmente nublado
11:30 AM 77.0 ° F 51.8 ° F 41% 30.01 pul 6.2 mi Variable 1.2 mph - N/A   Parcialmente nublado
12:00 PM 78.8 ° F 50.0 ° F 36% 30.01 pul 6.2 mi Variable 1.2 mph - N/A   Parcialmente nublado
12:30 PM 80.6 ° F 46.4 ° F 30% 30.01 pul 6.2 mi Variable 2.3 mph - N/A   Parcialmente nublado
1:00 PM 82.4 ° F 44.6 ° F 26% 30.01 pul 6.2 mi Variable 2.3 mph - N/A   Parcialmente nublado
1:30 PM 82.4 ° F 46.4 ° F 28% 30.01 pul 6.2 mi Oeste 5.8 mph - N/A   Parcialmente nublado
2:00 PM 84.2 ° F 46.4 ° F 27% 30.01 pul 6.2 mi Variable 3.5 mph - N/A   Parcialmente nublado
2:30 PM 84.2 ° F 46.4 ° F 27% 29.98 pul 6.2 mi Variable 4.6 mph - N/A   Parcialmente nublado
3:00 PM 84.2 ° F 46.4 ° F 27% 29.98 pul 6.2 mi Variable 5.8 mph - N/A   Parcialmente nublado
3:30 PM 86.0 ° F 44.6 ° F 23% 29.98 pul 6.2 mi Variable 5.8 mph - N/A   Parcialmente nublado
4:00 PM 86.0 ° F 42.8 ° F 22% 29.95 pul 6.2 mi Variable 4.6 mph - N/A   Parcialmente nublado
4:30 PM 87.8 ° F 42.8 ° F 21% 29.95 pul 6.2 mi Variable 4.6 mph - N/A   Parcialmente nublado
5:00 PM 89 ° F 48 ° F 15% 29.82 pul 19 mi Norte 11.5 mph - -   Nubes dispersas
5:00 PM 87.8 ° F 42.8 ° F 21% 29.95 pul 6.2 mi Variable 9.2 mph - N/A   Parcialmente nublado
5:30 PM 87.8 ° F 42.8 ° F 21% 29.95 pul 6.2 mi NNO 8.1 mph - N/A   Parcialmente nublado
6:00 PM 87 ° F 45 ° F 14% 29.82 pul 19 mi NNO 9.2 mph - -  
6:00 PM 86.0 ° F 42.8 ° F 22% 29.95 pul 6.2 mi NO 8.1 mph - N/A   Parcialmente nublado
6:30 PM 87.8 ° F 42.8 ° F 21% 29.95 pul 6.2 mi Norte 6.9 mph 18.4 mph N/A   Parcialmente nublado
7:00 PM 86.0 ° F 41.0 ° F 20% 29.95 pul 6.2 mi NNO 10.4 mph - N/A   Parcialmente nublado
7:30 PM 86.0 ° F 42.8 ° F 22% 29.95 pul 6.2 mi NNO 8.1 mph - N/A   Parcialmente nublado
8:00 PM 86 ° F 47 ° F 16% 29.83 pul 16 mi NNO 10.4 mph - -   Nubes dispersas
8:30 PM 84.2 ° F 42.8 ° F 23% 29.95 pul 6.2 mi NNO 10.4 mph - N/A   Parcialmente nublado
9:00 PM 82 ° F 45 ° F 17% 29.86 pul 18 mi Norte 8.1 mph - -  
9:00 PM 82.4 ° F 42.8 ° F 25% 29.95 pul - Norte 8.1 mph - N/A   Despejado
9:30 PM 80.6 ° F 41.0 ° F 24% 29.98 pul - NNO 5.8 mph - N/A   Despejado
10:00 PM 77.0 ° F 41.0 ° F 28% 29.98 pul - NO 2.3 mph - N/A   Despejado
10:30 PM 77.0 ° F 41.0 ° F 28% 29.98 pul - Variable 1.2 mph - N/A   Despejado
11:00 PM 71.6 ° F 42.8 ° F 35% 30.01 pul - Variable 2.3 mph - N/A   Despejado
11:30 PM 69.8 ° F 42.8 ° F 38% 30.01 pul - SO 2.3 mph - N/A   Despejado